Year,Month,Day,Hour,Minute,Value (Times are PST for temperature in C)
2018,06,04,00,00,10.20
2018,06,04,00,01,10.20
2018,06,04,00,02,10.20
2018,06,04,00,03,10.20
2018,06,04,00,04,10.20
2018,06,04,00,05,10.20
2018,06,04,00,06,10.20
2018,06,04,00,07,10.20
2018,06,04,00,08,10.20
2018,06,04,00,09,10.20
2018,06,04,00,10,10.20
2018,06,04,00,11,10.20
2018,06,04,00,12,10.20
2018,06,04,00,13,10.10
2018,06,04,00,14,10.10
2018,06,04,00,15,10.10
2018,06,04,00,16,10.10
2018,06,04,00,17,10.10
2018,06,04,00,18,10.10
2018,06,04,00,19,10.10
2018,06,04,00,20,10.10
2018,06,04,00,21,10.10
2018,06,04,00,22,10.10
2018,06,04,00,23,10.10
2018,06,04,00,24,10.10
2018,06,04,00,25,10.10
2018,06,04,00,26,10.10
2018,06,04,00,27,10.10
2018,06,04,00,28,10.10
2018,06,04,00,29,10.10
2018,06,04,00,30,10.10
2018,06,04,00,31,10.10
2018,06,04,00,32,10.10
2018,06,04,00,33,10.10
2018,06,04,00,34,10.10
2018,06,04,00,35,10.10
2018,06,04,00,36,10.10
2018,06,04,00,37,10.10
2018,06,04,00,38,10.10
2018,06,04,00,39,10.00
2018,06,04,00,40,10.00
2018,06,04,00,41,10.00
2018,06,04,00,42,10.00
2018,06,04,00,43,10.00
2018,06,04,00,44,10.00
2018,06,04,00,45,9.90
2018,06,04,00,46,9.90
2018,06,04,00,47,9.90
2018,06,04,00,48,9.90
2018,06,04,00,49,9.90
2018,06,04,00,50,9.90
2018,06,04,00,51,9.90
2018,06,04,00,52,9.90
2018,06,04,00,53,9.80
2018,06,04,00,54,9.80
2018,06,04,00,55,9.80
2018,06,04,00,56,9.80
2018,06,04,00,57,9.80
2018,06,04,00,58,9.80
2018,06,04,00,59,9.80
2018,06,04,01,00,9.80
2018,06,04,01,01,9.80
2018,06,04,01,02,9.70
2018,06,04,01,03,9.70
2018,06,04,01,04,9.70
2018,06,04,01,05,9.70
2018,06,04,01,06,9.70
2018,06,04,01,07,9.70
2018,06,04,01,08,9.70
2018,06,04,01,09,9.70
2018,06,04,01,10,9.60
2018,06,04,01,11,9.60
2018,06,04,01,12,9.60
2018,06,04,01,13,9.60
2018,06,04,01,14,9.60
2018,06,04,01,15,9.50
2018,06,04,01,16,9.50
2018,06,04,01,17,9.50
2018,06,04,01,18,9.50
2018,06,04,01,19,9.40
2018,06,04,01,20,9.40
2018,06,04,01,21,9.40
2018,06,04,01,22,9.40
2018,06,04,01,23,9.40
2018,06,04,01,24,9.40
2018,06,04,01,25,9.40
2018,06,04,01,26,9.40
2018,06,04,01,27,9.40
2018,06,04,01,28,9.40
2018,06,04,01,29,9.40
2018,06,04,01,30,9.40
2018,06,04,01,31,9.40
2018,06,04,01,32,9.40
2018,06,04,01,33,9.40
2018,06,04,01,34,9.40
2018,06,04,01,35,9.40
2018,06,04,01,36,9.40
2018,06,04,01,37,9.30
2018,06,04,01,38,9.30
2018,06,04,01,39,9.30
2018,06,04,01,40,9.30
2018,06,04,01,41,9.30
2018,06,04,01,42,9.30
2018,06,04,01,43,9.30
2018,06,04,01,44,9.20
2018,06,04,01,45,9.20
2018,06,04,01,46,9.20
2018,06,04,01,47,9.20
2018,06,04,01,48,9.20
2018,06,04,01,49,9.20
2018,06,04,01,50,9.10
2018,06,04,01,51,9.10
2018,06,04,01,52,9.10
2018,06,04,01,53,9.10
2018,06,04,01,54,9.10
2018,06,04,01,55,9.00
2018,06,04,01,56,9.00
2018,06,04,01,57,9.00
2018,06,04,01,58,9.00
2018,06,04,01,59,8.90
2018,06,04,02,00,8.90
2018,06,04,02,01,8.90
2018,06,04,02,02,8.90
2018,06,04,02,03,8.90
2018,06,04,02,04,8.90
2018,06,04,02,05,8.90
2018,06,04,02,06,8.90
2018,06,04,02,07,8.90
2018,06,04,02,08,8.90
2018,06,04,02,09,8.90
2018,06,04,02,10,8.80
2018,06,04,02,11,8.80
2018,06,04,02,12,8.80
2018,06,04,02,13,8.80
2018,06,04,02,14,8.80
2018,06,04,02,15,8.80
2018,06,04,02,16,8.80
2018,06,04,02,17,8.80
2018,06,04,02,18,8.80
2018,06,04,02,19,8.90
2018,06,04,02,20,8.90
2018,06,04,02,21,8.90
2018,06,04,02,22,8.90
2018,06,04,02,23,8.90
2018,06,04,02,24,8.90
2018,06,04,02,25,8.90
2018,06,04,02,26,8.90
2018,06,04,02,27,8.90
2018,06,04,02,28,8.90
2018,06,04,02,29,8.90
2018,06,04,02,30,8.90
2018,06,04,02,31,9.00
2018,06,04,02,32,9.00
2018,06,04,02,33,9.00
2018,06,04,02,34,8.90
2018,06,04,02,35,8.90
2018,06,04,02,36,9.00
2018,06,04,02,37,8.90
2018,06,04,02,38,8.90
2018,06,04,02,39,8.90
2018,06,04,02,40,8.90
2018,06,04,02,41,8.90
2018,06,04,02,42,8.90
2018,06,04,02,43,8.90
2018,06,04,02,44,8.90
2018,06,04,02,45,8.90
2018,06,04,02,46,8.80
2018,06,04,02,47,8.80
2018,06,04,02,48,8.80
2018,06,04,02,49,8.80
2018,06,04,02,50,8.80
2018,06,04,02,51,8.80
2018,06,04,02,52,8.80
2018,06,04,02,53,8.80
2018,06,04,02,54,8.80
2018,06,04,02,55,8.80
2018,06,04,02,56,8.80
2018,06,04,02,57,8.80
2018,06,04,02,58,8.80
2018,06,04,02,59,8.80
2018,06,04,03,00,8.80
2018,06,04,03,01,8.80
2018,06,04,03,02,8.80
2018,06,04,03,03,8.80
2018,06,04,03,04,8.80
2018,06,04,03,05,8.80
2018,06,04,03,06,8.80
2018,06,04,03,07,8.80
2018,06,04,03,08,8.80
2018,06,04,03,09,8.80
2018,06,04,03,10,8.70
2018,06,04,03,11,8.70
2018,06,04,03,12,8.70
2018,06,04,03,13,8.70
2018,06,04,03,14,8.70
2018,06,04,03,15,8.70
2018,06,04,03,16,8.60
2018,06,04,03,17,8.60
2018,06,04,03,18,8.60
2018,06,04,03,19,8.60
2018,06,04,03,20,8.60
2018,06,04,03,21,8.60
2018,06,04,03,22,8.50
2018,06,04,03,23,8.50
2018,06,04,03,24,8.50
2018,06,04,03,25,8.40
2018,06,04,03,26,8.40
2018,06,04,03,27,8.40
2018,06,04,03,28,8.30
2018,06,04,03,29,8.30
2018,06,04,03,30,8.30
2018,06,04,03,31,8.30
2018,06,04,03,32,8.20
2018,06,04,03,33,8.20
2018,06,04,03,34,8.20
2018,06,04,03,35,8.10
2018,06,04,03,36,8.10
2018,06,04,03,37,8.10
2018,06,04,03,38,8.00
2018,06,04,03,39,8.00
2018,06,04,03,40,7.90
2018,06,04,03,41,7.90
2018,06,04,03,42,7.90
2018,06,04,03,43,7.80
2018,06,04,03,44,7.80
2018,06,04,03,45,7.80
2018,06,04,03,46,7.80
2018,06,04,03,47,7.70
2018,06,04,03,48,7.70
2018,06,04,03,49,7.70
2018,06,04,03,50,7.60
2018,06,04,03,51,7.60
2018,06,04,03,52,7.60
2018,06,04,03,53,7.50
2018,06,04,03,54,7.50
2018,06,04,03,55,7.50
2018,06,04,03,56,7.40
2018,06,04,03,57,7.40
2018,06,04,03,58,7.40
2018,06,04,03,59,7.30
2018,06,04,04,00,7.30
2018,06,04,04,01,7.30
2018,06,04,04,02,7.30
2018,06,04,04,03,7.20
2018,06,04,04,04,7.20
2018,06,04,04,05,7.20
2018,06,04,04,06,7.10
2018,06,04,04,07,7.10
2018,06,04,04,08,7.10
2018,06,04,04,09,7.10
2018,06,04,04,10,7.00
2018,06,04,04,11,7.00
2018,06,04,04,12,7.00
2018,06,04,04,13,6.90
2018,06,04,04,14,6.90
2018,06,04,04,15,6.90
2018,06,04,04,16,6.80
2018,06,04,04,17,6.80
2018,06,04,04,18,6.80
2018,06,04,04,19,6.80
2018,06,04,04,20,6.80
2018,06,04,04,21,6.80
2018,06,04,04,22,6.80
2018,06,04,04,23,6.70
2018,06,04,04,24,6.70
2018,06,04,04,25,6.70
2018,06,04,04,26,6.70
2018,06,04,04,27,6.70
2018,06,04,04,28,6.70
2018,06,04,04,29,6.70
2018,06,04,04,30,6.70
2018,06,04,04,31,6.70
2018,06,04,04,32,6.60
2018,06,04,04,33,6.60
2018,06,04,04,34,6.60
2018,06,04,04,35,6.60
2018,06,04,04,36,6.60
2018,06,04,04,37,6.60
2018,06,04,04,38,6.60
2018,06,04,04,39,6.60
2018,06,04,04,40,6.60
2018,06,04,04,41,6.60
2018,06,04,04,42,6.60
2018,06,04,04,43,6.60
2018,06,04,04,44,6.60
2018,06,04,04,45,6.60
2018,06,04,04,46,6.60
2018,06,04,04,47,6.60
2018,06,04,04,48,6.50
2018,06,04,04,49,6.60
2018,06,04,04,50,6.60
2018,06,04,04,51,6.50
2018,06,04,04,52,6.50
2018,06,04,04,53,6.50
2018,06,04,04,54,6.50
2018,06,04,04,55,6.50
2018,06,04,04,56,6.50
2018,06,04,04,57,6.50
2018,06,04,04,58,6.50
2018,06,04,04,59,6.50
2018,06,04,05,00,6.50
2018,06,04,05,01,6.50
2018,06,04,05,02,6.40
2018,06,04,05,03,6.40
2018,06,04,05,04,6.40
2018,06,04,05,05,6.40
2018,06,04,05,06,6.40
2018,06,04,05,07,6.40
2018,06,04,05,08,6.40
2018,06,04,05,09,6.40
2018,06,04,05,10,6.40
2018,06,04,05,11,6.30
2018,06,04,05,12,6.30
2018,06,04,05,13,6.30
2018,06,04,05,14,6.30
2018,06,04,05,15,6.30
2018,06,04,05,16,6.30
2018,06,04,05,17,6.30
2018,06,04,05,18,6.30
2018,06,04,05,19,6.30
2018,06,04,05,20,6.30
2018,06,04,05,21,6.30
2018,06,04,05,22,6.30
2018,06,04,05,23,6.30
2018,06,04,05,24,6.30
2018,06,04,05,25,6.30
2018,06,04,05,26,6.30
2018,06,04,05,27,6.30
2018,06,04,05,28,6.30
2018,06,04,05,29,6.30
2018,06,04,05,30,6.30
2018,06,04,05,31,6.30
2018,06,04,05,32,6.30
2018,06,04,05,33,6.40
2018,06,04,05,34,6.40
2018,06,04,05,35,6.40
2018,06,04,05,36,6.40
2018,06,04,05,37,6.40
2018,06,04,05,38,6.40
2018,06,04,05,39,6.40
2018,06,04,05,40,6.40
2018,06,04,05,41,6.50
2018,06,04,05,42,6.50
2018,06,04,05,43,6.50
2018,06,04,05,44,6.50
2018,06,04,05,45,6.50
2018,06,04,05,46,6.50
2018,06,04,05,47,6.50
2018,06,04,05,48,6.50
2018,06,04,05,49,6.50
2018,06,04,05,50,6.60
2018,06,04,05,51,6.60
2018,06,04,05,52,6.60
2018,06,04,05,53,6.70
2018,06,04,05,54,6.70
2018,06,04,05,55,6.70
2018,06,04,05,56,6.70
2018,06,04,05,57,6.70
2018,06,04,05,58,6.80
2018,06,04,05,59,6.80
2018,06,04,06,00,6.80
2018,06,04,06,01,6.80
2018,06,04,06,02,6.80
2018,06,04,06,03,6.80
2018,06,04,06,04,6.80
2018,06,04,06,05,6.90
2018,06,04,06,06,6.90
2018,06,04,06,07,6.90
2018,06,04,06,08,6.90
2018,06,04,06,09,6.90
2018,06,04,06,10,6.90
2018,06,04,06,11,7.00
2018,06,04,06,12,7.00
2018,06,04,06,13,7.00
2018,06,04,06,14,7.10
2018,06,04,06,15,7.10
2018,06,04,06,16,7.10
2018,06,04,06,17,7.10
2018,06,04,06,18,7.20
2018,06,04,06,19,7.30
2018,06,04,06,20,7.30
2018,06,04,06,21,7.30
2018,06,04,06,22,7.40
2018,06,04,06,23,7.50
2018,06,04,06,24,7.50
2018,06,04,06,25,7.60
2018,06,04,06,26,7.60
2018,06,04,06,27,7.70
2018,06,04,06,28,7.80
2018,06,04,06,29,7.90
2018,06,04,06,30,7.90
2018,06,04,06,31,8.00
2018,06,04,06,32,8.00
2018,06,04,06,33,8.10
2018,06,04,06,34,8.20
2018,06,04,06,35,8.20
2018,06,04,06,36,8.30
2018,06,04,06,37,8.30
2018,06,04,06,38,8.40
2018,06,04,06,39,8.40
2018,06,04,06,40,8.50
2018,06,04,06,41,8.50
2018,06,04,06,42,8.60
2018,06,04,06,43,8.60
2018,06,04,06,44,8.70
2018,06,04,06,45,8.70
2018,06,04,06,46,8.80
2018,06,04,06,47,8.80
2018,06,04,06,48,8.80
2018,06,04,06,49,8.80
2018,06,04,06,50,8.80
2018,06,04,06,51,8.80
2018,06,04,06,52,8.90
2018,06,04,06,53,8.90
2018,06,04,06,54,8.90
2018,06,04,06,55,8.90
2018,06,04,06,56,8.90
2018,06,04,06,57,9.00
2018,06,04,06,58,9.00
2018,06,04,06,59,9.00
2018,06,04,07,00,9.00
2018,06,04,07,01,9.10
2018,06,04,07,02,9.10
2018,06,04,07,03,9.10
2018,06,04,07,04,9.10
2018,06,04,07,05,9.10
2018,06,04,07,06,9.20
2018,06,04,07,07,9.20
2018,06,04,07,08,9.20
2018,06,04,07,09,9.20
2018,06,04,07,10,9.20
2018,06,04,07,11,9.20
2018,06,04,07,12,9.30
2018,06,04,07,13,9.30
2018,06,04,07,14,9.30
2018,06,04,07,15,9.30
2018,06,04,07,16,9.30
2018,06,04,07,17,9.30
2018,06,04,07,18,9.30
2018,06,04,07,19,9.30
2018,06,04,07,20,9.30
2018,06,04,07,21,9.30
2018,06,04,07,22,9.30
2018,06,04,07,23,9.40
2018,06,04,07,24,9.40
2018,06,04,07,25,9.40
2018,06,04,07,26,9.40
2018,06,04,07,27,9.40
2018,06,04,07,28,9.40
2018,06,04,07,29,9.40
2018,06,04,07,30,9.40
2018,06,04,07,31,9.40
2018,06,04,07,32,9.40
2018,06,04,07,33,9.40
2018,06,04,07,34,9.50
2018,06,04,07,35,9.50
2018,06,04,07,36,9.50
2018,06,04,07,37,9.50
2018,06,04,07,38,9.60
2018,06,04,07,39,9.60
2018,06,04,07,40,9.60
2018,06,04,07,41,9.60
2018,06,04,07,42,9.70
2018,06,04,07,43,9.70
2018,06,04,07,44,9.80
2018,06,04,07,45,9.80
2018,06,04,07,46,9.90
2018,06,04,07,47,9.90
2018,06,04,07,48,10.00
2018,06,04,07,49,10.10
2018,06,04,07,50,10.20
2018,06,04,07,51,10.20
2018,06,04,07,52,10.30
2018,06,04,07,53,10.40
2018,06,04,07,54,10.40
2018,06,04,07,55,10.50
2018,06,04,07,56,10.60
2018,06,04,07,57,10.60
2018,06,04,07,58,10.70
2018,06,04,07,59,10.70
2018,06,04,08,00,10.80
2018,06,04,08,01,10.80
2018,06,04,08,02,10.90
2018,06,04,08,03,10.90
2018,06,04,08,04,10.90
2018,06,04,08,05,11.00
2018,06,04,08,06,11.00
2018,06,04,08,07,11.00
2018,06,04,08,08,11.10
2018,06,04,08,09,11.10
2018,06,04,08,10,11.10
2018,06,04,08,11,11.20
2018,06,04,08,12,11.20
2018,06,04,08,13,11.20
2018,06,04,08,14,11.30
2018,06,04,08,15,11.30
2018,06,04,08,16,11.30
2018,06,04,08,17,11.30
2018,06,04,08,18,11.40
2018,06,04,08,19,11.40
2018,06,04,08,20,11.50
2018,06,04,08,21,11.50
2018,06,04,08,22,11.60
2018,06,04,08,23,11.60
2018,06,04,08,24,11.60
2018,06,04,08,25,11.70
2018,06,04,08,26,11.70
2018,06,04,08,27,11.80
2018,06,04,08,28,11.80
2018,06,04,08,29,11.90
2018,06,04,08,30,12.00
2018,06,04,08,31,12.20
2018,06,04,08,32,12.30
2018,06,04,08,33,12.40
2018,06,04,08,34,12.50
2018,06,04,08,35,12.60
2018,06,04,08,36,12.70
2018,06,04,08,37,12.80
2018,06,04,08,38,13.00
2018,06,04,08,39,13.00
2018,06,04,08,40,13.10
2018,06,04,08,41,13.10
2018,06,04,08,42,13.20
2018,06,04,08,43,13.30
2018,06,04,08,44,13.40
2018,06,04,08,45,13.50
2018,06,04,08,46,13.60
2018,06,04,08,47,13.60
2018,06,04,08,48,13.60
2018,06,04,08,49,13.60
2018,06,04,08,50,13.70
2018,06,04,08,51,13.70
2018,06,04,08,52,13.80
2018,06,04,08,53,13.90
2018,06,04,08,54,13.90
2018,06,04,08,55,14.00
2018,06,04,08,56,14.00
2018,06,04,08,57,14.10
2018,06,04,08,58,14.10
2018,06,04,08,59,14.20
2018,06,04,09,00,14.20
2018,06,04,09,01,14.20
2018,06,04,09,02,14.30
2018,06,04,09,03,14.30
2018,06,04,09,04,14.30
2018,06,04,09,05,14.30
2018,06,04,09,06,14.30
2018,06,04,09,07,14.40
2018,06,04,09,08,14.40
2018,06,04,09,09,14.40
2018,06,04,09,10,14.50
2018,06,04,09,11,14.50
2018,06,04,09,12,14.50
2018,06,04,09,13,14.60
2018,06,04,09,14,14.60
2018,06,04,09,15,14.60
2018,06,04,09,16,14.60
2018,06,04,09,17,14.70
2018,06,04,09,18,14.70
2018,06,04,09,19,14.70
2018,06,04,09,20,14.80
2018,06,04,09,21,14.80
2018,06,04,09,22,14.90
2018,06,04,09,23,14.90
2018,06,04,09,24,14.90
2018,06,04,09,25,15.00
2018,06,04,09,26,15.00
2018,06,04,09,27,15.00
2018,06,04,09,28,15.00
2018,06,04,09,29,15.10
2018,06,04,09,30,15.10
2018,06,04,09,31,15.10
2018,06,04,09,32,15.20
2018,06,04,09,33,15.20
2018,06,04,09,34,15.20
2018,06,04,09,35,15.30
2018,06,04,09,36,15.30
2018,06,04,09,37,15.30
2018,06,04,09,38,15.40
2018,06,04,09,39,15.40
2018,06,04,09,40,15.40
2018,06,04,09,41,15.40
2018,06,04,09,42,15.50
2018,06,04,09,43,15.60
2018,06,04,09,44,15.60
2018,06,04,09,45,15.70
2018,06,04,09,46,15.70
2018,06,04,09,47,15.70
2018,06,04,09,48,15.70
2018,06,04,09,49,15.70
2018,06,04,09,50,15.70
2018,06,04,09,51,15.60
2018,06,04,09,52,15.60
2018,06,04,09,53,15.60
2018,06,04,09,54,15.60
2018,06,04,09,55,15.60
2018,06,04,09,56,15.50
2018,06,04,09,57,15.60
2018,06,04,09,58,15.60
2018,06,04,09,59,15.60
2018,06,04,10,00,15.60
2018,06,04,10,01,15.60
2018,06,04,10,02,15.60
2018,06,04,10,03,15.60
2018,06,04,10,04,15.60
2018,06,04,10,05,15.60
2018,06,04,10,06,15.70
2018,06,04,10,07,15.70
2018,06,04,10,08,15.80
2018,06,04,10,09,15.90
2018,06,04,10,10,16.00
2018,06,04,10,11,16.00
2018,06,04,10,12,16.10
2018,06,04,10,13,16.10
2018,06,04,10,14,16.10
2018,06,04,10,15,16.20
2018,06,04,10,16,16.20
2018,06,04,10,17,16.20
2018,06,04,10,18,16.30
2018,06,04,10,19,16.30
2018,06,04,10,20,16.30
2018,06,04,10,21,16.30
2018,06,04,10,22,16.30
2018,06,04,10,23,16.30
2018,06,04,10,24,16.20
2018,06,04,10,25,16.20
2018,06,04,10,26,16.30
2018,06,04,10,27,16.30
2018,06,04,10,28,16.30
2018,06,04,10,29,16.30
2018,06,04,10,30,16.30
2018,06,04,10,31,16.30
2018,06,04,10,32,16.30
2018,06,04,10,33,16.30
2018,06,04,10,34,16.30
2018,06,04,10,35,16.40
2018,06,04,10,36,16.40
2018,06,04,10,37,16.40
2018,06,04,10,38,16.40
2018,06,04,10,39,16.40
2018,06,04,10,40,16.50
2018,06,04,10,41,16.50
2018,06,04,10,42,16.50
2018,06,04,10,43,16.40
2018,06,04,10,44,16.40
2018,06,04,10,45,16.30
2018,06,04,10,46,16.40
2018,06,04,10,47,16.30
2018,06,04,10,48,16.40
2018,06,04,10,49,16.40
2018,06,04,10,50,16.40
2018,06,04,10,51,16.40
2018,06,04,10,52,16.50
2018,06,04,10,53,16.50
2018,06,04,10,54,16.60
2018,06,04,10,55,16.60
2018,06,04,10,56,16.70
2018,06,04,10,57,16.80
2018,06,04,10,58,16.80
2018,06,04,10,59,16.70
2018,06,04,11,00,16.80
2018,06,04,11,01,16.80
2018,06,04,11,02,16.70
2018,06,04,11,03,16.70
2018,06,04,11,04,16.70
2018,06,04,11,05,16.70
2018,06,04,11,06,16.70
2018,06,04,11,07,16.70
2018,06,04,11,08,16.70
2018,06,04,11,09,16.80
2018,06,04,11,10,16.80
2018,06,04,11,11,16.80
2018,06,04,11,12,16.90
2018,06,04,11,13,16.90
2018,06,04,11,14,17.00
2018,06,04,11,15,17.00
2018,06,04,11,16,17.00
2018,06,04,11,17,17.00
2018,06,04,11,18,17.00
2018,06,04,11,19,17.00
2018,06,04,11,20,17.00
2018,06,04,11,21,17.00
2018,06,04,11,22,17.00
2018,06,04,11,23,17.10
2018,06,04,11,24,17.20
2018,06,04,11,25,17.30
2018,06,04,11,26,17.40
2018,06,04,11,27,17.50
2018,06,04,11,28,17.60
2018,06,04,11,29,17.60
2018,06,04,11,30,17.60
2018,06,04,11,31,17.60
2018,06,04,11,32,17.60
2018,06,04,11,33,17.60
2018,06,04,11,34,17.70
2018,06,04,11,35,17.70
2018,06,04,11,36,17.80
2018,06,04,11,37,17.70
2018,06,04,11,38,17.70
2018,06,04,11,39,17.70
2018,06,04,11,40,17.70
2018,06,04,11,41,17.70
2018,06,04,11,42,17.70
2018,06,04,11,43,17.70
2018,06,04,11,44,17.70
2018,06,04,11,45,17.80
2018,06,04,11,46,17.80
2018,06,04,11,47,17.90
2018,06,04,11,48,18.00
2018,06,04,11,49,18.10
2018,06,04,11,50,18.10
2018,06,04,11,51,18.10
2018,06,04,11,52,18.00
2018,06,04,11,53,18.00
2018,06,04,11,54,17.90
2018,06,04,11,55,17.90
2018,06,04,11,56,17.80
2018,06,04,11,57,17.80
2018,06,04,11,58,17.90
2018,06,04,11,59,17.90
2018,06,04,12,00,18.00
2018,06,04,12,01,18.00
2018,06,04,12,02,18.10
2018,06,04,12,03,18.20
2018,06,04,12,04,18.20
2018,06,04,12,05,18.20
2018,06,04,12,06,18.20
2018,06,04,12,07,18.00
2018,06,04,12,08,17.80
2018,06,04,12,09,17.70
2018,06,04,12,10,17.70
2018,06,04,12,11,17.50
2018,06,04,12,12,17.40
2018,06,04,12,13,17.30
2018,06,04,12,14,17.20
2018,06,04,12,15,17.20
2018,06,04,12,16,17.20
2018,06,04,12,17,17.30
2018,06,04,12,18,17.40
2018,06,04,12,19,17.50
2018,06,04,12,20,17.70
2018,06,04,12,21,17.80
2018,06,04,12,22,17.80
2018,06,04,12,23,17.90
2018,06,04,12,24,18.00
2018,06,04,12,25,18.00
2018,06,04,12,26,18.00
2018,06,04,12,27,18.00
2018,06,04,12,28,17.90
2018,06,04,12,29,17.80
2018,06,04,12,30,17.70
2018,06,04,12,31,17.60
2018,06,04,12,32,17.60
2018,06,04,12,33,17.50
2018,06,04,12,34,17.50
2018,06,04,12,35,17.40
2018,06,04,12,36,17.40
2018,06,04,12,37,17.30
2018,06,04,12,38,17.30
2018,06,04,12,39,17.30
2018,06,04,12,40,17.30
2018,06,04,12,41,17.30
2018,06,04,12,42,17.30
2018,06,04,12,43,17.30
2018,06,04,12,44,17.40
2018,06,04,12,45,17.40
2018,06,04,12,46,17.40
2018,06,04,12,47,17.50
2018,06,04,12,48,17.50
2018,06,04,12,49,17.60
2018,06,04,12,50,17.70
2018,06,04,12,51,17.80
2018,06,04,12,52,17.90
2018,06,04,12,53,18.00
2018,06,04,12,54,18.10
2018,06,04,12,55,18.20
2018,06,04,12,56,18.30
2018,06,04,12,57,18.40
2018,06,04,12,58,18.50
2018,06,04,12,59,18.70
2018,06,04,13,00,18.70
2018,06,04,13,01,18.80
2018,06,04,13,02,18.80
2018,06,04,13,03,18.80
2018,06,04,13,04,18.80
2018,06,04,13,05,18.70
2018,06,04,13,06,18.60
2018,06,04,13,07,18.60
2018,06,04,13,08,18.50
2018,06,04,13,09,18.50
2018,06,04,13,10,18.60
2018,06,04,13,11,18.60
2018,06,04,13,12,18.60
2018,06,04,13,13,18.60
2018,06,04,13,14,18.60
2018,06,04,13,15,18.70
2018,06,04,13,16,18.80
2018,06,04,13,17,18.80
2018,06,04,13,18,18.90
2018,06,04,13,19,18.90
2018,06,04,13,20,18.90
2018,06,04,13,21,18.90
2018,06,04,13,22,19.00
2018,06,04,13,23,19.00
2018,06,04,13,24,18.90
2018,06,04,13,25,18.80
2018,06,04,13,26,18.70
2018,06,04,13,27,18.80
2018,06,04,13,28,18.80
2018,06,04,13,29,18.80
2018,06,04,13,30,18.80
2018,06,04,13,31,18.70
2018,06,04,13,32,18.60
2018,06,04,13,33,18.60
2018,06,04,13,34,18.50
2018,06,04,13,35,18.50
2018,06,04,13,36,18.50
2018,06,04,13,37,18.50
2018,06,04,13,38,18.50
2018,06,04,13,39,18.50
2018,06,04,13,40,18.60
2018,06,04,13,41,18.60
2018,06,04,13,42,18.70
2018,06,04,13,43,18.70
2018,06,04,13,44,18.80
2018,06,04,13,45,18.90
2018,06,04,13,46,19.00
2018,06,04,13,47,19.10
2018,06,04,13,48,19.20
2018,06,04,13,49,19.20
2018,06,04,13,50,19.20
2018,06,04,13,51,19.20
2018,06,04,13,52,19.20
2018,06,04,13,53,19.20
2018,06,04,13,54,19.30
2018,06,04,13,55,19.30
2018,06,04,13,56,19.30
2018,06,04,13,57,19.40
2018,06,04,13,58,19.40
2018,06,04,13,59,19.40
2018,06,04,14,00,19.30
2018,06,04,14,01,19.30
2018,06,04,14,02,19.40
2018,06,04,14,03,19.40
2018,06,04,14,04,19.40
2018,06,04,14,05,19.30
2018,06,04,14,06,19.20
2018,06,04,14,07,19.10
2018,06,04,14,08,19.10
2018,06,04,14,09,19.10
2018,06,04,14,10,19.00
2018,06,04,14,11,18.90
2018,06,04,14,12,18.90
2018,06,04,14,13,18.90
2018,06,04,14,14,18.90
2018,06,04,14,15,18.80
2018,06,04,14,16,18.90
2018,06,04,14,17,18.90
2018,06,04,14,18,19.00
2018,06,04,14,19,19.10
2018,06,04,14,20,19.20
2018,06,04,14,21,19.30
2018,06,04,14,22,19.40
2018,06,04,14,23,19.40
2018,06,04,14,24,19.40
2018,06,04,14,25,19.40
2018,06,04,14,26,19.50
2018,06,04,14,27,19.50
2018,06,04,14,28,19.60
2018,06,04,14,29,19.70
2018,06,04,14,30,19.70
2018,06,04,14,31,19.80
2018,06,04,14,32,19.80
2018,06,04,14,33,19.80
2018,06,04,14,34,19.80
2018,06,04,14,35,19.70
2018,06,04,14,36,19.70
2018,06,04,14,37,19.60
2018,06,04,14,38,19.50
2018,06,04,14,39,19.50
2018,06,04,14,40,19.40
2018,06,04,14,41,19.20
2018,06,04,14,42,19.10
2018,06,04,14,43,19.10
2018,06,04,14,44,19.10
2018,06,04,14,45,19.10
2018,06,04,14,46,19.10
2018,06,04,14,47,19.20
2018,06,04,14,48,19.30
2018,06,04,14,49,19.40
2018,06,04,14,50,19.40
2018,06,04,14,51,19.50
2018,06,04,14,52,19.50
2018,06,04,14,53,19.50
2018,06,04,14,54,19.60
2018,06,04,14,55,19.60
2018,06,04,14,56,19.50
2018,06,04,14,57,19.50
2018,06,04,14,58,19.60
2018,06,04,14,59,19.60
2018,06,04,15,00,19.70
2018,06,04,15,01,19.70
2018,06,04,15,02,19.70
2018,06,04,15,03,19.80
2018,06,04,15,04,19.80
2018,06,04,15,05,19.80
2018,06,04,15,06,19.70
2018,06,04,15,07,19.70
2018,06,04,15,08,19.80
2018,06,04,15,09,19.80
2018,06,04,15,10,19.80
2018,06,04,15,11,19.80
2018,06,04,15,12,19.80
2018,06,04,15,13,19.90
2018,06,04,15,14,19.90
2018,06,04,15,15,19.90
2018,06,04,15,16,20.00
2018,06,04,15,17,19.90
2018,06,04,15,18,19.90
2018,06,04,15,19,19.80
2018,06,04,15,20,19.70
2018,06,04,15,21,19.60
2018,06,04,15,22,19.50
2018,06,04,15,23,19.50
2018,06,04,15,24,19.50
2018,06,04,15,25,19.50
2018,06,04,15,26,19.50
2018,06,04,15,27,19.50
2018,06,04,15,28,19.50
2018,06,04,15,29,19.60
2018,06,04,15,30,19.70
2018,06,04,15,31,19.80
2018,06,04,15,32,19.90
2018,06,04,15,33,19.90
2018,06,04,15,34,20.00
2018,06,04,15,35,20.10
2018,06,04,15,36,20.20
2018,06,04,15,37,20.30
2018,06,04,15,38,20.30
2018,06,04,15,39,20.20
2018,06,04,15,40,20.20
2018,06,04,15,41,20.10
2018,06,04,15,42,20.10
2018,06,04,15,43,20.00
2018,06,04,15,44,20.00
2018,06,04,15,45,20.00
2018,06,04,15,46,19.80
2018,06,04,15,47,19.70
2018,06,04,15,48,19.70
2018,06,04,15,49,19.60
2018,06,04,15,50,19.60
2018,06,04,15,51,19.70
2018,06,04,15,52,19.80
2018,06,04,15,53,19.90
2018,06,04,15,54,19.90
2018,06,04,15,55,20.00
2018,06,04,15,56,20.10
2018,06,04,15,57,20.10
2018,06,04,15,58,20.20
2018,06,04,15,59,20.20
2018,06,04,16,00,20.30
2018,06,04,16,01,20.30
2018,06,04,16,02,20.30
2018,06,04,16,03,20.20
2018,06,04,16,04,20.10
2018,06,04,16,05,20.00
2018,06,04,16,06,19.90
2018,06,04,16,07,19.80
2018,06,04,16,08,19.70
2018,06,04,16,09,19.70
2018,06,04,16,10,19.70
2018,06,04,16,11,19.70
2018,06,04,16,12,19.70
2018,06,04,16,13,19.70
2018,06,04,16,14,19.60
2018,06,04,16,15,19.60
2018,06,04,16,16,19.50
2018,06,04,16,17,19.50
2018,06,04,16,18,19.40
2018,06,04,16,19,19.40
2018,06,04,16,20,19.40
2018,06,04,16,21,19.50
2018,06,04,16,22,19.50
2018,06,04,16,23,19.50
2018,06,04,16,24,19.60
2018,06,04,16,25,19.60
2018,06,04,16,26,19.60
2018,06,04,16,27,19.60
2018,06,04,16,28,19.60
2018,06,04,16,29,19.70
2018,06,04,16,30,19.70
2018,06,04,16,31,19.80
2018,06,04,16,32,19.80
2018,06,04,16,33,19.90
2018,06,04,16,34,19.90
2018,06,04,16,35,20.00
2018,06,04,16,36,20.10
2018,06,04,16,37,20.10
2018,06,04,16,38,20.20
2018,06,04,16,39,20.30
2018,06,04,16,40,20.40
2018,06,04,16,41,20.40
2018,06,04,16,42,20.40
2018,06,04,16,43,20.50
2018,06,04,16,44,20.50
2018,06,04,16,45,20.50
2018,06,04,16,46,20.50
2018,06,04,16,47,20.50
2018,06,04,16,48,20.40
2018,06,04,16,49,20.30
2018,06,04,16,50,20.20
2018,06,04,16,51,20.00
2018,06,04,16,52,19.90
2018,06,04,16,53,19.90
2018,06,04,16,54,19.80
2018,06,04,16,55,19.80
2018,06,04,16,56,19.80
2018,06,04,16,57,19.80
2018,06,04,16,58,19.80
2018,06,04,16,59,19.80
2018,06,04,17,00,19.80
2018,06,04,17,01,19.70
2018,06,04,17,02,19.60
2018,06,04,17,03,19.60
2018,06,04,17,04,19.60
2018,06,04,17,05,19.60
2018,06,04,17,06,19.60
2018,06,04,17,07,19.50
2018,06,04,17,08,19.40
2018,06,04,17,09,19.30
2018,06,04,17,10,19.40
2018,06,04,17,11,19.40
2018,06,04,17,12,19.40
2018,06,04,17,13,19.40
2018,06,04,17,14,19.40
2018,06,04,17,15,19.40
2018,06,04,17,16,19.40
2018,06,04,17,17,19.40
2018,06,04,17,18,19.40
2018,06,04,17,19,19.40
2018,06,04,17,20,19.40
2018,06,04,17,21,19.50
2018,06,04,17,22,19.50
2018,06,04,17,23,19.50
2018,06,04,17,24,19.50
2018,06,04,17,25,19.50
2018,06,04,17,26,19.50
2018,06,04,17,27,19.50
2018,06,04,17,28,19.50
2018,06,04,17,29,19.50
2018,06,04,17,30,19.50
2018,06,04,17,31,19.50
2018,06,04,17,32,19.50
2018,06,04,17,33,19.50
2018,06,04,17,34,19.40
2018,06,04,17,35,19.40
2018,06,04,17,36,19.30
2018,06,04,17,37,19.30